Regional Weather Roundup
Issued by NWS

Home | Current Version | Previous Version | Graphics & Text | Print | Product List | Glossary On
Versions: 1 2 3 4 5 6 7 8 9 10 11 12 13 14 15 16 17 18 19 20 21 22 23 24 25 26 27 28 29 30 31 32 33 34 35 36 37 38 39 40 41 42 43 44 45 46 47 48 49 50
000
ASUS43 KLSX 221757
RWRMO

WEATHER SUMMARY FOR MISSOURI
NATIONAL WEATHER SERVICE SPRINGFIELD MO
100 PM CDT SUN OCT 22 2017

NOTE: "FAIR" INDICATES FEW OR NO CLOUDS BELOW 12,000 FEET WITH NO
       SIGNIFICANT WEATHER AND/OR OBSTRUCTIONS TO VISIBILITY.
       CURRENT SKY AND/OR WEATHER CONDITIONS ARE NOT AVAILABLE FOR
       CHILLICOTHE AND FARMINGTON.

MOZ001>031-035>038-043-044-053-054-221900-
...NORTHERN AND WESTERN MISSOURI...

CITY           SKY/WX    TMP DP  RH WIND       PRES   REMARKS
KANSAS CTY INT CLOUDY    60  46  59 NW7       30.13F
6HR MIN TEMP:  47; 6HR MAX TEMP:  60;

LEE`S SUMMIT   CLOUDY    58  45  62 NW13      30.13F
6HR MIN TEMP:  49; 6HR MAX TEMP:  58;

ST JOSEPH      MOSUNNY   63  43  48 NW10      30.13F
6HR MIN TEMP:  45; 6HR MAX TEMP:  63;

CHILLICOTHE      N/A     61  46  57 N5        30.12S
6HR MIN TEMP:  50; 6HR MAX TEMP:  61; 6HR PCP:  0.02;


$$
MOZ066>068-077>081-088>096-101>105-221900-
...SOUTHWEST MISSOURI...

CITY           SKY/WX    TMP DP  RH WIND       PRES   REMARKS
SPRINGFIELD    LGT RAIN  52  51  97 N18       30.10F FOG
6HR MIN TEMP:  52; 6HR MAX TEMP:  56;

JOPLIN         CLOUDY    57  49  74 N9        30.14F
6HR MIN TEMP:  51; 6HR MAX TEMP:  57; 6HR PCP:  0.02;

BRANSON        LGT RAIN  52  52 100 NW9       30.10F FOG

$$
MOZ032>034-039>042-045>050-055>058-069>072-221900-
...CENTRAL MISSOURI...

CITY           SKY/WX    TMP DP  RH WIND       PRES   REMARKS
COLUMBIA       NOT AVBL
JEFFERSON CITY LGT RAIN  53  50  89 CALM      30.11S FOG
6HR MIN TEMP:  52; 6HR MAX TEMP:  56; 6HR PCP:  0.07;

ROLLA          CLOUDY    52  52 100 NW14      30.09R FOG
6HR MIN TEMP:  52; 6HR MAX TEMP:  58; 6HR PCP:  0.02;

SEDALIA        CLOUDY    54  51  90 NW8       30.13S
6HR MIN TEMP:  51; 6HR MAX TEMP:  54; 6HR PCP:  0.18;

WARRENSBURG    CLOUDY    55  46  71 NW7       30.13S
OSAGE BEACH    LGT RAIN  52  52 100 VRB7      30.11F FOG

$$
MOZ051-052-059>065-221900-
...EAST CENTRAL MISSOURI...

CITY           SKY/WX    TMP DP  RH WIND       PRES   REMARKS
ST LOUIS INTL  LGT RAIN  58  58 100 NW12G21   30.02R FOG
6HR MIN TEMP:  58; 6HR MAX TEMP:  71; 6HR PCP:  0.09;

ST CHARLES     CLOUDY    57  55  94 NW17      30.02R FOG

$$
MOZ072>076-082>087-097>100-106>115-221900-
...SOUTH CENTRAL AND SOUTHEAST MISSOURI...

CITY           SKY/WX    TMP DP  RH WIND       PRES   REMARKS
CAPE GIRARDEAU CLOUDY    73  63  70 S16G25    29.97F
6HR MIN TEMP:  67; 6HR MAX TEMP:  74;

POPLAR BLUFF   CLOUDY    73  61  65 S12       29.97F
6HR MIN TEMP:  64; 6HR MAX TEMP:  73; 6HR PCP: TRACE;

WEST PLAINS    CLOUDY    57  54  89 NW8       30.06R
6HR MIN TEMP:  57; 6HR MAX TEMP:  63; 6HR PCP:  0.01;


$$



USA.gov is the U.S. government's official web portal to all federal, state and local government web resources and services.